Location: Worth Mountain WMA
(34.9569°N, 81.4819°W)
Time: 09:03:37
(UTC-05:00)

COSMOS 2428 - Pass Details

Date: 18 August 2017
Orbit: 846 x 856 km, 70.9° (Epoch: 21 November)

Event Time Altitude Azimuth Distance (km) Brightness Sun altitude
Exits shadow 22:35:03 22° 49° (NE) 1,779 4.3 -26.9°
Drops below altitude 10° 22:37:13 10° 37° (NE) 2,486 5.2 -27.2°
Sets 22:39:47 0° 30° (NNE) 3,424 6.0 -27.6°
